SL-19 R/B, 23440

Orbit data source: Space-Track

SL-19 R/B, 23440 is space debris in LEO originally from a launch on Mon, 26 Dec 1994 UTC launched from the Tyuratam Missile And Space Complex (TTMTR). Debris objects in space refer to the collection of defunct objects orbiting the Earth. Examples of debris include non-operational satellites, rocket bodies, and fragments generated from explosions, collisions, or faulty payload assembly.

Loading next visibility...
Identifier
23440, 1994-085B
Orbit
LEO
Country
Flag of CISCIS
Related business
Manufacturer
Khrunichev
Mission
Spacecraft
Bus & Motor
BRIZ, Unknown motor
Mass
~1,700 kg wet, ~1,700 kg dry
Launch date (UTC)
1994-12-26 (31 years ago)
Launch vehicle
Unknown
Launch site
Tyuratam Missile And Space Complex (TTMTR)
Object type
Payload
Rocket body
Debris
Shape & HBR
Hex Cyl + 1 Rod, 1.3 m
Radar Cross Section
5.049 m², Large (>1 m²)

Expand to show TLE details & history
Last TLE update: 18 hours ago

TLE from 18 hours ago
0 SL-19 R/B
1 23440U 94085B   25260.79026426 -.00000040  00000-0  58628-4 0  9998
2 23440  64.8346  48.4797 0172219  32.0187  69.7269 11.27133739264916
Epoch: 2025-09-17T18:57Z
TLE epoch observation values (Epoch: 2025-09-17T18:57:58.832Z)
Latitude
61.70684°
Longitude
-113.29161°
Altitude
1,986.241 km
Speed
6.93 km/s
True Right ascension
11h 12m 39s
True Declination
61° 35' 03"
Sunlit
Object was in daylight at epoch
Visualization orbit readout
Latitude
Unknown
Longitude
Unknown
Altitude
Unknown
Speed
Unknown
Apparent Right ascension
Unknown
Apparent Declination
Unknown
Sunlit
N/A
Visualization observer readout
Local Sidereal Time
06:16:22
Azimuth
Unknown
Elevation
Unknown
Doppler factor
Unknown
Orbital elements
Apogee altitude
2,168.046 km
Perigee altitude
1,878.666 km
Semi-major axis
8,401.493 km
Eccentricity
0.01722
Inclination
64.8346°
RAAN
48.4797°
Arg. of periapsis
32.0187°
True anomaly
71.59171°
Mean anomaly
69.7269°
Eccentric anomaly
70.65795°
Mean motion
2.81844 °/min
Orbital period
127.73 mins
BSTAR
0.000058628
Loading maneuver chart data...
Computing Atmospheric mass density...
Loading historical data...
Loading historical data...
Loading historical data...
Loading historical data...
Loading historical data...
Loading historical data...
Loading historical data...

Documentation

Showing up to 5 results
|